Tracking 30701 objects as of 15-Jun-2025
HD Live streaming from Space Station
objects crossing your sky now

THOR ABLESTAR DEB

Track THOR ABLESTAR DEB now!
10-day predictions


NORAD ID: 6747
Int'l Code: 1961-015KM
Perigee: 822.5 km
Apogee: 1,015.2 km
Inclination: 66.6 °
Period: 103.2 minutes
Semi major axis: 7289 km
RCS: 0.0083 m2 (small)
Launch date: June 29, 1961
Source: United States (US)
Launch site: AIR FORCE EASTERN TEST RANGE (AFETR)

Note: This is SATELLITE DEBRIS
Your satellite tracking list
Your tracking list is empty




NASA's NSSDC Master Catalog

Two Line Element Set (TLE):
1 06747U 61015KM  25165.88286736  .00000336  00000-0  28704-3 0  9990
2 06747  66.6009 337.0437 0132224  91.3267 270.2964 13.94841728240342
Source of the keplerian elements: AFSPC